CST,Max TemperatureF,Mean TemperatureF,Min TemperatureF,Max Dew PointF,MeanDew PointF,Min DewpointF,Max Humidity, Mean Humidity, Min Humidity, Max Sea Level PressureIn, Mean Sea Level PressureIn, Min Sea Level PressureIn, Max VisibilityMiles, Mean VisibilityMiles, Min VisibilityMiles, Max Wind SpeedMPH, Mean Wind SpeedMPH, Max Gust SpeedMPH,PrecipitationIn, CloudCover, Events, WindDirDegrees
2012-11-1,78,58,37,42,38,33,85,55,24,30.04,29.98,29.91,10,10,8,10,4,15,0.00,2,,198
2012-11-2,86,68,50,47,42,34,71,44,17,29.97,29.84,29.73,10,10,10,23,13,29,0.00,5,,153
2012-11-3,64,52,39,38,34,32,79,55,31,30.22,30.15,30.00,10,10,9,20,8,28,0.00,4,,2
2012-11-4,68,50,32,37,33,29,96,60,24,30.23,30.15,30.04,10,10,10,18,6,23,0.00,4,,198
2012-11-5,58,48,38,39,37,34,85,66,46,30.16,30.12,30.05,10,10,10,26,12,35,0.00,5,,352
2012-11-6,67,50,33,38,31,24,96,60,24,30.16,30.12,30.08,10,10,7,21,8,26,0.00,3,,298
2012-11-7,65,49,33,29,27,24,70,47,24,30.22,30.13,30.04,10,10,10,14,7,18,0.00,1,,118
2012-11-8,77,62,47,52,40,29,65,48,31,30.03,29.88,29.78,10,10,10,31,16,38,0.00,2,,164
2012-11-9,80,69,58,58,54,51,75,59,42,29.79,29.73,29.67,10,10,10,33,19,46,0.00,2,,174
2012-11-10,76,69,62,60,56,53,73,63,53,29.74,29.67,29.55,10,10,7,40,26,49,0.02,6,Rain-Thunderstorm,187
2012-11-11,65,46,26,61,33,18,97,71,44,30.33,29.95,29.66,10,9,2,35,14,45,0.53,6,Rain-Thunderstorm,329
2012-11-12,53,37,21,25,21,16,88,56,24,30.48,30.43,30.34,10,10,10,16,7,22,0.00,0,,253
2012-11-13,55,41,27,30,27,24,92,62,32,30.46,30.39,30.31,10,10,10,20,9,24,0.00,4,,176
2012-11-14,58,46,33,31,28,25,75,53,30,30.36,30.30,30.23,10,10,10,21,11,25,0.00,2,,165
2012-11-15,58,47,36,35,32,29,82,61,40,30.40,30.30,30.22,10,10,10,14,7,17,0.00,4,,126
2012-11-16,62,46,30,35,32,29,92,61,30,30.44,30.38,30.33,10,10,7,14,5,18,0.00,0,,149
2012-11-17,62,49,35,34,30,27,82,56,29,30.34,30.28,30.21,10,10,9,28,14,32,0.00,1,,163
2012-11-18,66,55,43,42,34,29,62,48,34,30.22,30.13,30.05,10,10,10,28,17,38,T,5,Rain,164
2012-11-19,71,56,41,49,45,39,100,72,44,30.16,30.11,30.07,10,10,7,22,7,26,0.00,2,Fog,190
2012-11-20,70,55,39,45,39,35,100,66,31,30.27,30.20,30.15,10,9,4,10,3,22,0.00,0,Fog,325
2012-11-21,74,55,36,49,44,35,92,65,38,30.23,30.10,29.92,10,10,10,31,13,39,0.00,1,,176
2012-11-22,75,61,47,52,45,35,69,51,33,30.30,29.98,29.85,10,10,10,26,16,35,0.00,4,,232
2012-11-23,48,36,24,33,20,14,69,50,31,30.59,30.49,30.34,10,10,10,26,10,32,0.00,0,,344
2012-11-24,59,41,22,24,21,17,81,52,23,30.43,30.16,29.93,10,10,10,29,13,35,0.00,3,,183
2012-11-25,61,46,31,30,26,22,64,46,27,29.97,29.92,29.86,10,10,10,15,7,18,0.00,1,,81
2012-11-26,49,39,29,30,26,19,82,58,34,30.50,30.25,29.98,10,10,6,29,16,36,0.00,2,,24
2012-11-27,45,31,16,26,23,14,92,71,49,30.49,30.40,30.29,10,9,7,18,7,23,0.00,1,,187
2012-11-28,58,42,25,35,29,22,88,62,36,30.39,30.28,30.13,10,10,10,17,6,23,0.00,3,,154
2012-11-29,66,51,36,43,39,33,85,64,42,30.11,30.03,29.95,10,10,7,21,10,25,0.00,3,,177
2012-11-30,64,47,29,52,43,28,96,77,57,30.10,30.02,29.93,10,8,3,13,5,17,0.00,4,,153